| time (UTC) | temp C | wind direction | speed KPH | gust KPH | rain 1hr cm | rain 24hr cm | rain mn cm | humidity % | barometer mb |
| 20260504191607 | 26 | 200 | 16.1 | 27.4 | 0.00 | 0.00 | 0.00 | 46 | 1013.4 |
| 20260504190040 | 25 | 217 | 17.7 | 33.8 | 0.00 | 0.00 | 0.00 | 47 | 1013.5 |
| 20260504184549 | 25 | 229 | 19.3 | 32.2 | 0.00 | 0.00 | 0.00 | 46 | 1013.7 |
| 20260504183038 | 25 | 207 | 14.5 | 37.0 | 0.00 | 0.00 | 0.00 | 48 | 1013.7 |
| 20260504181544 | 25 | 221 | 19.3 | 29.0 | 0.00 | 0.00 | 0.00 | 47 | 1013.9 |
| 20260504180043 | 25 | 190 | 19.3 | 32.2 | 0.00 | 0.00 | 0.00 | 47 | 1014.0 |
| 20260504174538 | 25 | 235 | 16.1 | 27.4 | 0.00 | 0.00 | 0.00 | 48 | 1014.2 |
| 20260504173038 | 25 | 209 | 12.9 | 25.7 | 0.00 | 0.00 | 0.00 | 51 | 1014.5 |
| 20260504171541 | 24 | 193 | 9.7 | 25.7 | 0.00 | 0.00 | 0.00 | 53 | 1014.7 |
| 20260504081542 | 14 | 203 | 8.0 | 16.1 | 0.00 | 0.00 | 0.00 | 69 | 1015.5 |
| 20260504044543 | 13 | 194 | 3.2 | 8.0 | 0.00 | 0.00 | 0.00 | 66 | 1016.9 |
| 20260504043044 | 13 | 195 | 3.2 | 4.8 | 0.00 | 0.00 | 0.00 | 66 | 1017.0 |
| 20260504041541 | 14 | 203 | 1.6 | 6.4 | 0.00 | 0.00 | 0.00 | 65 | 1017.0 |
| 20260504040041 | 14 | 193 | 3.2 | 6.4 | 0.00 | 0.00 | 0.00 | 64 | 1017.2 |
| 20260504034543 | 14 | 198 | 3.2 | 6.4 | 0.00 | 0.00 | 0.00 | 65 | 1017.3 |
| 20260504033055 | 14 | 201 | 3.2 | 4.8 | 0.00 | 0.00 | 0.00 | 65 | 1017.5 |
| 20260504031559 | 13 | 206 | 3.2 | 3.2 | 0.00 | 0.00 | 0.00 | 66 | 1017.7 |
| 20260504030059 | 13 | 179 | 0.0 | 1.6 | 0.00 | 0.00 | 0.00 | 67 | 1017.7 |
| 20260504024544 | 13 | 200 | 1.6 | 3.2 | 0.00 | 0.00 | 0.00 | 68 | 1017.5 |
| 20260504023038 | 13 | 212 | 0.0 | 0.0 | 0.00 | 0.00 | 0.00 | 68 | 1017.4 |
| 20260504021545 | 13 | 0 | 0.0 | 0.0 | 0.00 | 0.00 | 0.00 | 68 | 1017.3 |
| 20260504020046 | 13 | 0 | 0.0 | 0.0 | 0.00 | 0.00 | 0.00 | 68 | 1017.2 |
| 20260504014543 | 13 | 0 | 0.0 | 0.0 | 0.00 | 0.00 | 0.00 | 67 | 1017.1 |
| 20260504013041 | 14 | 0 | 0.0 | 0.0 | 0.00 | 0.00 | 0.00 | 64 | 1017.0 |
| 20260504011538 | 15 | 0 | 0.0 | 0.0 | 0.00 | 0.00 | 0.00 | 60 | 1017.1 |
| 20260504010040 | 17 | 0 | 0.0 | 0.0 | 0.00 | 0.00 | 0.00 | 57 | 1017.0 |
| 20260504004540 | 18 | 0 | 0.0 | 1.6 | 0.00 | 0.00 | 0.00 | 52 | 1017.0 |
| 20260504003046 | 20 | 200 | 0.0 | 4.8 | 0.00 | 0.00 | 0.00 | 48 | 1016.8 |
| 20260504001537 | 21 | 182 | 3.2 | 8.0 | 0.00 | 0.00 | 0.00 | 43 | 1016.9 |
| 20260504000047 | 21 | 211 | 6.4 | 12.9 | 0.00 | 0.00 | 0.00 | 42 | 1017.0 |
| 20260503234540 | 21 | 190 | 9.7 | 14.5 | 0.00 | 0.00 | 0.00 | 41 | 1017.2 |
| 20260503233040 | 21 | 195 | 9.7 | 16.1 | 0.00 | 0.00 | 0.00 | 40 | 1017.3 |
| 20260503231538 | 22 | 183 | 9.7 | 16.1 | 0.00 | 0.00 | 0.00 | 40 | 1017.3 |
| 20260503230045 | 22 | 205 | 8.0 | 17.7 | 0.00 | 0.00 | 0.00 | 39 | 1017.3 |
| 20260503224544 | 22 | 220 | 8.0 | 16.1 | 0.00 | 0.00 | 0.00 | 40 | 1017.5 |
| 20260503223041 | 22 | 226 | 9.7 | 14.5 | 0.00 | 0.00 | 0.00 | 37 | 1017.5 |
| 20260503221541 | 22 | 196 | 11.3 | 20.9 | 0.00 | 0.00 | 0.00 | 40 | 1017.9 |
| 20260503220038 | 22 | 207 | 4.8 | 12.9 | 0.00 | 0.00 | 0.00 | 40 | 1017.9 |
| 20260503214538 | 22 | 225 | 4.8 | 22.5 | 0.00 | 0.00 | 0.00 | 38 | 1018.1 |
| 20260503213037 | 22 | 285 | 6.4 | 22.5 | 0.00 | 0.00 | 0.00 | 38 | 1018.5 |
| 20260503211537 | 22 | 215 | 6.4 | 19.3 | 0.00 | 0.00 | 0.00 | 37 | 1018.7 |
| 20260503210040 | 22 | 285 | 8.0 | 20.9 | 0.00 | 0.00 | 0.00 | 37 | 1018.9 |
| 20260503204540 | 22 | 203 | 12.9 | 19.3 | 0.00 | 0.00 | 0.00 | 36 | 1019.1 |
| 20260503203043 | 22 | 276 | 6.4 | 16.1 | 0.00 | 0.00 | 0.00 | 38 | 1019.2 |
| 20260503201539 | 21 | 333 | 9.7 | 17.7 | 0.00 | 0.00 | 0.00 | 40 | 1019.5 |
| 20260503200038 | 21 | 222 | 9.7 | 17.7 | 0.00 | 0.00 | 0.00 | 38 | 1019.9 |
| 20260503194538 | 21 | 281 | 8.0 | 22.5 | 0.00 | 0.00 | 0.00 | 40 | 1020.1 |
| 20260503193042 | 21 | 307 | 3.2 | 20.9 | 0.00 | 0.00 | 0.00 | 39 | 1020.5 |